カタログに戻る

STARLINK-33642

運用中通信VLEO
NORAD 63978·PAYLOAD·🇺🇸 United States

打ち上げ May 13, 2025 から Cape Canaveral Space Force Station

Loading…

次のパス (今後24時間)

TLE

最新Source: CelesTrak SupGP

元期: Sep 14, 2026, 21:39 UTC

1 63978C 25099AC  26257.90256944 -.00012315  00000+0 -44599-3 0  2573
2 63978  42.9997 184.1092 0001149 264.2832 132.1479 15.27588125    14

AllMySatでSTARLINK-33642をリアルタイム追跡

Download on the App Store